[[{"header":{"parameterUnit":"m.s-1","parameterCategory":1,"la1":30.2991,"la2":30.254,"lo1":-89.0895,"lo2":-89.0444,"dy":0.0017,"dx":0.0017,"nx":28,"ny":28,"refTime":"2025-08-29T09:00:00:Z","depth":0,"parameterNumber":2,"parameterNumberName":"U-component_of_WINDS"},"data":[0,0,0,0,0,0,0,0,0,0,0,0,0,0,0,0,0,0,0,0,0,0,0,0,0,0,0,0,0,0,0,0,0,0,0,0,0,0,0,0,0,0,0,0,0,0,0,0,0,0,0,0,0,0,0,0,0,0,-0.9583,-0.9583,0,-0.9651,-0.9652,-0.9653,-0.9576,-0.9573,-0.957,-0.9567,-0.9642,-0.9647,-0.9651,0,0,0,0,0,0,0,0,0,0,0,0,0,-0.9388,-0.9392,-0.9583,-0.9584,-0.9584,-0.9651,-0.9652,-0.9653,-0.9576,-0.9573,-0.9569,-0.9566,-0.964,-0.9646,-0.9652,0,0,0,0,0,0,0,0,0,0,0,0,0,-0.9467,-0.9394,-0.9582,-0.9554,-0.9552,-0.9651,-0.9652,-0.9653,-0.9577,-0.9573,-0.9568,-0.9564,-0.9639,-0.9646,-0.9653,-0.9784,0,0,-0.9674,-0.9677,0,0,0,0,0,0,0,0,-0.9462,-0.9474,-0.9557,-0.9556,-0.9554,-0.96,-0.9611,-0.9697,-0.9578,-0.9568,-0.9567,-0.9562,-0.9632,-0.9639,-0.9662,-0.9788,-0.9791,-0.9675,-0.9679,-0.9682,-0.9684,0,0,0,0,0,0,0,-0.9457,-0.947,-0.961,-0.9559,-0.9557,-0.9539,-0.9545,-0.9627,-0.9624,-0.9568,-0.9563,-0.9572,-0.963,-0.9655,-0.9663,-0.9792,-0.9675,-0.9681,-0.9685,-0.9688,-1.003,-1.0034,0,0,0,0,0,0,-0.9454,-0.9466,-0.9608,-0.9612,-0.9496,-0.9546,-0.9553,-0.959,-0.9623,-0.9623,-0.9575,-0.9568,-0.9645,-0.9655,-0.9666,-0.9823,-0.9682,-0.9689,-0.9693,-1.0025,-1.0031,-1.0036,0,0,0,0,0,0,-0.945,-0.9468,-0.9605,-0.9538,-0.9554,-0.9554,-0.9596,-0.9594,-0.9619,-0.9628,-0.9627,-0.9601,-0.9642,-0.9656,-0.9755,-0.9824,-0.9692,-0.9698,-1.0019,-1.0027,-1.0033,-1.0138,0,0,0,0,0,0,-0.9445,-0.9467,-0.9516,-0.9539,-0.9558,-0.9693,-0.96,-0.9598,-0.9631,-0.9621,-0.9652,-0.9653,-0.964,-0.9745,-0.9762,-0.9832,-0.9704,-1.0013,-1.0023,-1.0031,-1.0128,-1.0148,-1.0164,0,0,0,0,0,-0.9438,-0.9544,-0.9519,-0.9537,-0.9619,-0.9697,-0.9707,-0.9689,-0.9636,-0.9687,-0.9692,-0.9652,-0.9813,-0.9756,-0.9775,-0.9847,-1.0009,-1.002,-1.003,-1.012,-1.0144,-1.0164,0,0,0,0,0,0,-0.9531,-0.9546,-0.9519,-0.9635,-0.9665,-0.9684,-0.9747,-0.9714,-0.9761,-0.9751,-0.9727,-0.9734,-0.984,-0.9853,-0.9789,-0.9976,-0.9903,-0.9918,-0.9965,-0.9987,-1.0005,-1.0001,-0.971,0,0,0,0,0,-0.9564,-0.9624,-0.9635,-0.9737,-0.9753,-0.9747,-0.978,-0.9763,-0.9794,-0.9807,-0.982,-0.9852,-0.991,-0.9949,-1.0002,-1.0129,-1.0135,-1.0188,-1.0206,-1.0221,-1.0235,-1.0303,-1.0327,-1.0072,-1.0071,-1.0071,0,0,-0.9635,-0.9651,-0.9691,-0.9755,-0.9777,-0.9841,-0.9759,-0.983,-0.9878,-0.9818,-0.9913,-0.9923,-0.9958,-1.0071,-1.0122,-1.0086,-1.0306,-1.0235,-1.0246,-1.0253,-1.0317,-1.0341,-1.0363,-1.0079,-1.0078,-1.0076,0,0,-0.9797,-0.9814,-0.99,-0.9923,-0.9955,-0.995,-0.9971,-0.9994,-0.9999,-1.0093,-1.0049,-1.0106,-1.0206,-1.0232,-1.0259,-1.0429,-1.0394,-1.0447,-1.0543,-1.0609,-1.0629,-1.0647,-1.0709,-1.0732,-1.046,-1.0461,-1.0461,0,-0.9881,-0.9975,-0.9949,-1.0024,-1.0054,-1.0,-1.0088,-1.0111,-1.0161,-1.0183,-1.0141,-1.0264,-1.0284,-1.0403,-1.0445,-1.0467,-1.0491,-1.0445,-1.0628,-1.0646,-1.0662,-1.0721,-1.0744,-1.0467,-1.0466,-1.0466,-1.0465,0,-1.0077,-1.0143,-1.0209,-1.0256,-1.0293,-1.0375,-1.0362,-1.0403,-1.0382,-1.0382,-1.0479,-1.05,-1.0557,-1.0583,-1.0564,-1.07,-1.0676,-1.0632,-1.0557,-1.0693,-1.0748,-1.077,-1.0476,-1.0474,-1.0472,-1.047,0,0,-1.0302,-1.0332,-1.0357,-1.0378,-1.0409,-1.046,-1.0538,-1.0592,-1.0628,-1.0663,-1.073,-1.0814,-1.0772,-1.0803,-1.0786,-1.0844,-1.0979,-1.0792,-1.0792,-1.0827,-1.1131,-1.1166,-1.1192,-1.0954,-1.0958,-1.0962,-1.1128,0,-1.0465,-1.06,-1.0579,-1.071,-1.0771,-1.0719,-1.0788,-1.0815,-1.0817,-1.0869,-1.0871,-1.0932,-1.0872,-1.089,-1.0945,-1.0951,-1.104,-1.0938,-1.1018,-1.1021,-1.1013,-1.1221,-1.1258,-1.1415,-1.115,-1.1153,-1.1156,0,-1.0675,-1.0716,-1.0853,-1.0873,-1.0898,-1.096,-1.1008,-1.1058,-1.1088,-1.1085,-1.1117,-1.1089,-1.1169,-1.1091,-1.12,-1.1132,-1.1163,-1.117,-1.1176,-1.1184,-1.1098,-1.1237,-1.1464,-1.1488,-1.1189,-1.1186,-1.1184,0,-1.0827,-1.0916,-1.101,-1.1029,-1.1055,-1.11,-1.1113,-1.1138,-1.1171,-1.1213,-1.1235,-1.1286,-1.1314,-1.1355,-1.1341,-1.1285,-1.1454,-1.1375,-1.1455,-1.1456,-1.1495,-1.1493,-1.1733,-1.1512,-1.1512,-1.1511,-1.1511,0,-1.1013,-1.1099,-1.1078,-1.1136,-1.1231,-1.1206,-1.1301,-1.1308,-1.133,-1.1389,-1.1347,-1.1403,-1.1381,-1.1436,-1.1426,-1.1519,-1.1532,-1.1533,-1.1529,-1.1538,-1.1538,-1.156,-1.1549,-1.1517,-1.1516,-1.1515,-1.1514,0,-1.1201,-1.119,-1.1288,-1.1304,-1.131,-1.138,-1.1393,-1.1448,-1.1445,-1.152,-1.1536,-1.1533,-1.1596,-1.1585,-1.1655,-1.1648,-1.1764,-1.1747,-1.1755,-1.1751,-1.1833,-1.1826,-1.2096,-1.213,-1.1886,-1.1888,-1.189,0,-1.1321,-1.1386,-1.1408,-1.1444,-1.146,-1.1518,-1.1551,-1.1528,-1.1565,-1.1603,-1.1653,-1.1711,-1.1757,-1.186,-1.1864,-1.1918,-1.1902,-1.1993,-1.191,-1.1916,-1.1905,-1.1903,-1.1909,-1.201,-1.2013,-1.2015,-1.2017,0,-1.1537,-1.1528,-1.1577,-1.1625,-1.1666,-1.1702,-1.1735,-1.1767,-1.1747,-1.179,-1.1853,-1.1888,-1.1958,-1.2017,-1.2067,-1.2081,-1.2047,-1.2042,-1.2064,-1.2075,-1.2077,-1.2078,-1.1801,-1.2037,-1.2035,-1.2034,-1.2033,-1.2032,-1.1696,-1.1751,-1.1775,-1.1832,-1.1853,-1.1884,-1.1936,-1.1939,-1.199,-1.2045,-1.2028,-1.2099,-1.2126,-1.2188,-1.2208,-1.2264,-1.2231,-1.2262,-1.227,-1.2279,-1.2289,-1.2066,-1.2273,-1.2272,-1.2272,-1.2271,-1.2271,0,-1.1911,-1.1923,-1.1975,-1.2021,-1.2066,-1.2026,-1.206,-1.21,-1.2163,-1.2191,-1.2236,-1.2308,-1.2364,-1.2372,-1.2426,-1.2469,-1.2455,-1.2484,-1.2482,-1.2486,-1.2315,-1.2292,-1.2495,-1.2495,-1.2495,-1.2495,-1.2495,-1.2495,-1.2028,-1.212,-1.2114,-1.2215,-1.2227,-1.2296,-1.2318,-1.2347,-1.2369,-1.245,-1.2497,-1.25,-1.252,-1.2574,-1.2625,-1.2625,-1.2648,-1.2684,-1.2679,-1.252,-1.2498,-1.2477,-1.2455,-1.2689,-1.2689,-1.2845,-1.2847,-1.2848]},{"header":{"parameterUnit":"m.s-1","parameterCategory":1,"la1":30.2991,"la2":30.254,"lo1":-89.0895,"lo2":-89.0444,"dy":0.0017,"dx":0.0017,"nx":28,"ny":28,"refTime":"2025-08-29T09:00:00:Z","depth":0,"parameterNumber":3,"parameterNumberName":"V-component_of_WINDS"},"data":[0,0,0,0,0,0,0,0,0,0,0,0,0,0,0,0,0,0,0,0,0,0,0,0,0,0,0,0,0,0,0,0,0,0,0,0,0,0,0,0,0,0,0,0,0,0,0,0,0,0,0,0,0,0,0,0,0,0,-3.8139,-3.814,0,-3.8245,-3.8246,-3.8247,-3.822,-3.8218,-3.8216,-3.8214,-3.8318,-3.8323,-3.8327,0,0,0,0,0,0,0,0,0,0,0,0,0,-3.7908,-3.7913,-3.8139,-3.814,-3.8142,-3.8245,-3.8246,-3.8248,-3.822,-3.8218,-3.8215,-3.8213,-3.8316,-3.8322,-3.8328,0,0,0,0,0,0,0,0,0,0,0,0,0,-3.8011,-3.7914,-3.8139,-3.8141,-3.8142,-3.8244,-3.8246,-3.8248,-3.8221,-3.8218,-3.8215,-3.8212,-3.8315,-3.8321,-3.8328,-3.8435,0,0,-3.835,-3.8353,0,0,0,0,0,0,0,0,-3.8005,-3.8019,-3.8139,-3.8141,-3.8142,-3.8216,-3.8203,-3.831,-3.8222,-3.8191,-3.8214,-3.821,-3.8286,-3.8296,-3.8322,-3.8439,-3.8444,-3.8351,-3.8355,-3.8358,-3.836,0,0,0,0,0,0,0,-3.7998,-3.8014,-3.8181,-3.8141,-3.8143,-3.8134,-3.8146,-3.8223,-3.8255,-3.8193,-3.8191,-3.8205,-3.8287,-3.8315,-3.8324,-3.8445,-3.835,-3.8357,-3.8361,-3.8364,-3.8653,-3.8657,0,0,0,0,0,0,-3.799,-3.8009,-3.8177,-3.8184,-3.8065,-3.8141,-3.8154,-3.8195,-3.8254,-3.826,-3.8207,-3.8203,-3.8305,-3.8316,-3.8328,-3.8455,-3.8358,-3.8365,-3.8369,-3.865,-3.8654,-3.8658,0,0,0,0,0,0,-3.7985,-3.8005,-3.8173,-3.8096,-3.8117,-3.8148,-3.8196,-3.8199,-3.8228,-3.8264,-3.8269,-3.8231,-3.8303,-3.8318,-3.8408,-3.8459,-3.8368,-3.8374,-3.8646,-3.8651,-3.8656,-3.8711,0,0,0,0,0,0,-3.7979,-3.8004,-3.8046,-3.8097,-3.8121,-3.8253,-3.8199,-3.8204,-3.8241,-3.8236,-3.8288,-3.8294,-3.8302,-3.8398,-3.8415,-3.8467,-3.838,-3.8642,-3.8648,-3.8654,-3.8705,-3.8718,-3.8729,0,0,0,0,0,-3.7971,-3.8056,-3.8048,-3.8069,-3.8174,-3.8256,-3.827,-3.8278,-3.8245,-3.8287,-3.831,-3.8292,-3.845,-3.8407,-3.8427,-3.8481,-3.8638,-3.8646,-3.8654,-3.87,-3.8715,-3.8728,0,0,0,0,0,0,-3.8009,-3.8063,-3.8055,-3.816,-3.8204,-3.8252,-3.8304,-3.8294,-3.8348,-3.8341,-3.8348,-3.836,-3.8452,-3.8475,-3.8427,-3.8586,-3.8539,-3.8551,-3.8568,-3.8582,-3.8594,-3.8586,-3.8386,0,0,0,0,0,-3.803,-3.8094,-3.8137,-3.8225,-3.8248,-3.8273,-3.8309,-3.8311,-3.8357,-3.8375,-3.8404,-3.8448,-3.8507,-3.8546,-3.8603,-3.8708,-3.8718,-3.8755,-3.8767,-3.8776,-3.8786,-3.8843,-3.8859,-3.8683,-3.8683,-3.8683,0,0,-3.8073,-3.8111,-3.815,-3.8234,-3.8269,-3.8333,-3.8288,-3.8358,-3.8406,-3.8385,-3.8472,-3.8495,-3.8544,-3.8642,-3.8687,-3.8665,-3.8837,-3.8786,-3.8793,-3.8798,-3.8852,-3.8869,-3.8884,-3.8689,-3.8688,-3.8687,0,0,-3.8185,-3.8221,-3.8298,-3.8334,-3.8387,-3.8402,-3.8421,-3.847,-3.8485,-3.8573,-3.8559,-3.8614,-3.8716,-3.8751,-3.8783,-3.8907,-3.8892,-3.8925,-3.8986,-3.9041,-3.9055,-3.9067,-3.9111,-3.9127,-3.8935,-3.8935,-3.8935,0,-3.8232,-3.8331,-3.8339,-3.8411,-3.8447,-3.8432,-3.851,-3.8543,-3.8611,-3.8636,-3.861,-3.8738,-3.877,-3.8876,-3.8906,-3.8932,-3.8952,-3.8919,-3.9052,-3.9065,-3.9076,-3.9118,-3.9135,-3.8939,-3.8938,-3.8938,-3.8938,0,-3.8385,-3.8453,-3.8509,-3.8577,-3.862,-3.8694,-3.8712,-3.8754,-3.8752,-3.877,-3.8859,-3.8896,-3.896,-3.8985,-3.8984,-3.909,-3.9075,-3.9051,-3.9004,-3.9097,-3.9136,-3.9152,-3.8944,-3.8943,-3.8941,-3.8941,0,0,-3.8525,-3.8597,-3.8617,-3.8647,-3.8704,-3.8756,-3.8828,-3.8892,-3.8927,-3.8974,-3.9034,-3.9121,-3.9099,-3.9134,-3.9137,-3.9185,-3.928,-3.9155,-3.9156,-3.9176,-3.9398,-3.9416,-3.9435,-3.927,-3.9274,-3.9276,-3.9394,0,-3.8642,-3.8772,-3.8781,-3.8898,-3.896,-3.8946,-3.9009,-3.905,-3.9068,-3.9122,-3.9141,-3.9202,-3.9168,-3.919,-3.9237,-3.9259,-3.9325,-3.925,-3.9325,-3.9328,-3.9314,-3.9455,-3.9475,-3.9584,-3.941,-3.9412,-3.9414,0,-3.8797,-3.885,-3.8973,-3.902,-3.9047,-3.9104,-3.9162,-3.9214,-3.9259,-3.9268,-3.9308,-3.9303,-3.9376,-3.9326,-3.9425,-3.9375,-3.9405,-3.9421,-3.9425,-3.9432,-3.9377,-3.9466,-3.962,-3.9636,-3.9438,-3.9436,-3.9435,0,-3.8886,-3.8988,-3.9075,-3.9101,-3.9159,-3.9199,-3.9224,-3.9266,-3.9304,-3.9354,-3.9378,-3.9435,-3.9466,-3.951,-3.952,-3.9484,-3.9619,-3.9571,-3.9628,-3.9628,-3.9658,-3.9656,-3.9818,-3.9678,-3.9677,-3.9677,-3.9677,0,-3.9016,-3.9092,-3.9116,-3.9169,-3.9253,-3.9262,-3.9344,-3.9366,-3.9404,-3.946,-3.9451,-3.9503,-3.9514,-3.9568,-3.9576,-3.9656,-3.967,-3.9679,-3.968,-3.968,-3.9679,-3.9701,-3.9693,-3.9682,-3.9681,-3.968,-3.9679,0,-3.9131,-3.915,-3.9243,-3.929,-3.9304,-3.9363,-3.9403,-3.9453,-3.9469,-3.954,-3.9557,-3.9583,-3.9646,-3.9661,-3.9735,-3.9741,-3.9836,-3.983,-3.9821,-3.9821,-3.9877,-3.9872,-4.0059,-4.0084,-3.9927,-3.9929,-3.993,0,-3.9212,-3.9271,-3.9324,-3.9362,-3.9389,-3.945,-3.9488,-3.9498,-3.9538,-3.9593,-3.9636,-3.9698,-3.9749,-3.985,-3.9874,-3.993,-3.9925,-3.9987,-3.9934,-3.9931,-3.9926,-3.9923,-3.9928,-3.9997,-3.9999,-4.0001,-4.0002,0,-3.9355,-3.9362,-3.9418,-3.9478,-3.9524,-3.9571,-3.9615,-3.9646,-3.9662,-3.9706,-3.9772,-3.9811,-3.9887,-3.9949,-4.0005,-4.0029,-4.0018,-4.0018,-4.0034,-4.0035,-4.0028,-4.0032,-3.9849,-4.0014,-4.0013,-4.0012,-4.0011,-4.0011,-3.9456,-3.9507,-3.9552,-3.9615,-3.9649,-3.9691,-3.9741,-3.9764,-3.9819,-3.9883,-3.9884,-3.9955,-3.9997,-4.0072,-4.01,-4.0154,-4.0134,-4.0158,-4.0164,-4.017,-4.0175,-4.0019,-4.0164,-4.0164,-4.0163,-4.0163,-4.0163,0,-3.9598,-3.9627,-3.9684,-3.9748,-3.9796,-3.9782,-3.983,-3.9872,-3.9935,-3.9975,-4.0025,-4.0099,-4.0158,-4.0187,-4.0245,-4.0283,-4.0279,-4.0298,-4.0295,-4.03,-4.0189,-4.0169,-4.03,-4.03,-4.03,-4.03,-4.03,-4.03,-3.9678,-3.9763,-3.9775,-3.9876,-3.9903,-3.9974,-4.0003,-4.004,-4.0073,-4.0157,-4.0206,-4.0225,-4.026,-4.032,-4.0373,-4.038,-4.0402,-4.0423,-4.0427,-4.0322,-4.0308,-4.0295,-4.0277,-4.0428,-4.0428,-4.0534,-4.0535,-4.0536]}]]